Location: Bishopstone
(51.0167°N, 1.9000°W)
Time: 08:08:20
(UTC+00:00)

COSMOS 2455 - Pass Details

Date: 16 September 2019
Orbit: 900 x 910 km, 67.1° (Epoch: 13 October)

Event Time Altitude Azimuth Distance (km) Brightness Sun altitude
Rises 19:49:20 0° 319° (NW) 3,550 7.2 -14.4°
Reaches altitude 10° 19:52:03 10° 310° (NW) 2,603 6.5 -14.8°
Maximum altitude 19:57:25 34° 248° (WSW) 1,444 4.3 -15.6°
Drops below altitude 10° 20:02:45 10° 185° (S) 2,584 5.0 -16.3°
Enters shadow 20:05:25 - 176° (S) 3,512 5.6 -16.7°
